HALOSAT (43549 NORAD) Tracking and Keplerian Element Data

This shows tracking and keplerian element data for the satellite.

Feedback or suggestion? Click here.




ElementValue
Catalog43549
NameHALOSAT
Epoch Orbit2393
Epoch Day350.72202288
Epoch Year2018
RAAN186.9053
Inclination51.6382
Eccentricity0.0006325
Argument of Perigee163.738
Mean Anonmoly196.3816
Mean Motion15.57257267
Decay Rate4.119E-05
L11 43549U 98067NX 18350.72202288 .00004119 00000-0 62121-4 0 9994
L22 43549 51.6382 186.9053 0006325 163.7380 196.3816 15.57257267 23936

Live tracking and technical data element details for HALOSAT (NORAD 43549). HALOSAT can be tracked NOW for your location showing map with azimuth and elevation plus other details from your city location.

Track the satellite on the map from your city or location and see movement details for azimuth, elevation, latitude, longitude, range, height, and movement on the map or in text.







IsCatalogInMostPopularTable: catalog: 43549, numindb: 63
Update: records affected: 1



GetName: 43549 HALOSAT

Hit Count: updated at: Mon, 17 Dec 2018 09:15:24 GMT